Location: Boiro
(42.6475°N, 8.8834°W)
Time: 03:11:43
(UTC+01:00)

Vanguard 2 - Pass Details

Date: 01 December 2021
Orbit: 553 x 2936 km, 32.9° (Epoch: 20 January)

Event Time Altitude Azimuth Distance (km) Brightness Sun altitude
Rises 20:26:28 0° 268° (W) 4,317 12.7 -25.8°
Reaches altitude 10° 20:29:23 10° 257° (WSW) 3,648 12.0 -26.3°
Maximum altitude 20:37:45 31° 200° (SSW) 3,064 10.7 -27.8°
Drops below altitude 10° 20:49:48 10° 146° (SSE) 5,306 11.5 -30.0°
Enters shadow 20:52:31 - 142° (SE) 5,945 11.7 -30.5°
Sets 20:55:11 0° 138° (SE) 6,568 - -31.0°
